Voltar ao catálogo

STARLINK-4321

AtivoComunicaçõesSSO
NORAD 53082·PAYLOAD·🇺🇸 United States

Lançado Jul 11, 2022 de Vandenberg Space Force Base

Loading…

Próximas Passagens (próximas 24 horas)

TLE

AtualizadoSource: CelesTrak SupGP

Época: Sep 14, 2026, 22:23 UTC

1 53082C 22077AR  26257.93312500  .00053917  00000+0  16735-2 0  2576
2 53082  97.2854  72.8141 0001736  96.2879 200.7380 15.33414401    13

Acompanhe STARLINK-4321 em tempo real com AllMySat

Download on the App Store